PEGASUS DEB, 24378

Orbit data source: Space-Track

PEGASUS DEB, 24378 is space debris in LEO originally from a launch on Thu, 19 May 1994 UTC launched from the Air Force Western Test Range (AFWTR). Debris objects in space refer to the collection of defunct objects orbiting the Earth. Examples of debris include non-operational satellites, rocket bodies, and fragments generated from explosions, collisions, or faulty payload assembly.

Loading next visibility...
Identifier
24378, 1994-029QF
Orbit
LEO
Country
Flag of USUS
Related business
Manufacturer
Unknown
Mission
Spacecraft
Bus & Motor
Unknown
Mass
Unknown
Launch date (UTC)
1994-05-19 (32 years ago)
Launch vehicle
Unknown
Launch site
Air Force Western Test Range (AFWTR)
Object type
Payload
Rocket body
Debris
Shape & HBR
Unknown shape, 0.1 m
Radar Cross Section
Medium (>0.1 m² and <1 m²)

Expand to show TLE details & history
Last TLE update: 1 day ago

TLE from 1 day ago
0 PEGASUS DEB
1 24378U 94029QF  26207.01522917  .00001201  00000-0  20815-3 0  9995
2 24378  82.0284 212.3672 0161296  79.6985 282.2356 14.59194905704323
Epoch: 2026-07-26T00:21Z
TLE epoch observation values (Epoch: 2026-07-26T00:21:55.800Z)
Latitude
0.00006°
Longitude
-96.83452°
Altitude
676.347 km
Speed
7.53 km/s
True Right ascension
14h 09m 28s
True Declination
0° 00' 00"
Sunlit
Object was in daylight at epoch
Visualization orbit readout
Latitude
Unknown
Longitude
Unknown
Altitude
Unknown
Speed
Unknown
Apparent Right ascension
Unknown
Apparent Declination
Unknown
Sunlit
N/A
Visualization observer readout
Local Sidereal Time
19:54:42
Azimuth
Unknown
Elevation
Unknown
Doppler factor
Unknown
Orbital elements
Apogee altitude
806.898 km
Perigee altitude
578.793 km
Semi-major axis
7,070.983 km
Eccentricity
0.01613
Inclination
82.0284°
RAAN
212.3672°
Arg. of periapsis
79.6985°
True anomaly
280.42182°
Mean anomaly
282.2356°
Eccentric anomaly
281.32945°
Mean motion
3.65026 °/min
Orbital period
98.62 mins
BSTAR
0.00020815
Loading maneuver chart data...
Computing Atmospheric mass density...
Loading historical data...
Loading historical data...
Loading historical data...
Loading historical data...
Loading historical data...
Loading historical data...
Loading historical data...

Documentation

Showing up to 5 results
|